Location: �clusier
(49.9361°N, 2.7869°E)
Time: 04:31:01
(UTC+00:00)

Cosmos 1943 Rocket - Pass Details

Date: 27 October 2021
Orbit: 811 x 844 km, 71.0° (Epoch: 07 December)

Event Time Altitude Azimuth Distance (km) Brightness Sun altitude
Rises 17:42:50 0° 329° (NNW) 3,415 5.7 -11.6°
Reaches altitude 10° 17:47:47 10° 6° (N) 2,477 4.5 -12.3°
Maximum altitude 17:49:04 11° 19° (NNE) 2,425 4.3 -12.6°
Drops below altitude 10° 17:50:22 10° 33° (NNE) 2,475 4.3 -12.8°
Enters shadow 17:51:27 - 43° (NE) 2,592 4.3 -12.9°
